CAPE
2584 2665 2659 2512 2248 2277 2529 2412 2624 2789 2569 2540 2629 2076 1909 1614 1566 2041 1351 1144 1815 1815 1985 1918 2037 2586 3081 3348 3091 2808 3060 3412 3333 3138 3190 3167 2990 2864 3089 3072 2862 3002 3352 3241 2658 2688 2692 2842 3176 3151 3014 2950 2764 2618 3067 2648 1852 1388 1388 1545 1695 1773 1783 1694 1641 1456 1215 881 248 0 0 0 0 0
2642 2789 2843 2784 2555 2277 2286 1929 2095 2654 2428 2470 2744 2488 2843 2470 2234 2374 1870 1678 2774 2240 2320 3408 2697 2621 2862 3096 3151 3075 2921 2865 3427 3273 3202 3236 3033 2865 3000 2938 2930 2992 3200 3316 2854 2723 2656 2703 3059 3090 2987 2883 2686 2449 2723 2423 1685 1478 1492 1672 1852 1845 1801 1782 1756 1593 1305 966 299 0 0 0 0 0
2746 2755 2743 2722 2782 2592 2244 1918 2353 2340 2935 2171 2065 3384 2952 2790 2346 2670 2813 2268 3046 2443 2865 2772 2987 2946 2698 2876 2812 2664 2531 2736 3128 3237 3359 3255 2903 2963 2871 2748 2796 2838 2947 3093 2985 2822 2689 2561 2809 2945 2884 2789 2613 2392 2341 2362 1691 1474 1509 1654 1885 1942 1861 1821 1794 1656 1348 1069 333 0 0 0 0 0
3000 2877 2833 2957 2812 2632 2373 2560 2537 2424 2392 2249 1993 2391 2528 2872 2618 2492 2357 2034 2053 2726 2840 2825 3036 2730 2809 2904 2718 2544 2373 2790 2917 3138 3036 2704 3078 3156 3070 2925 2895 2908 2888 2826 2776 2739 2693 2604 2529 2745 2717 2583 2537 2387 2227 2044 1867 1836 1582 1587 1757 1884 1884 1811 1800 1706 1433 1122 574 0 0 0 0 0
3144 3024 3040 2946 3002 3147 2647 2348 2791 2586 2422 2150 2086 2297 1754 1700 2726 2458 2448 1999 1605 1443 2459 3121 2621 2590 2896 2583 2767 2810 3238 3279 3306 3171 3215 3260 3272 3357 3289 3067 2846 2714 2752 2755 2703 2640 2558 2521 2446 2536 2595 2514 2448 2436 2253 2041 1980 2071 2028 1880 1775 1793 1756 1716 1714 1653 1421 1176 814 117 0 0 0 0
3174 3269 3235 3080 2744 3090 2955 2296 2527 2621 2602 2385 2059 2058 2411 2163 1934 2170 1630 1590 1548 1478 1766 2047 2153 2579 2586 2633 3123 2896 3124 3406 3422 3342 3182 3046 3018 3026 3073 3159 3182 2961 2708 2491 2429 2391 2445 2361 2474 2420 2241 2365 2247 2400 2347 2011 1929 2104 2228 2170 2065 2012 1741 1563 1599 1597 1410 1165 931 342 0 0 0 0
3117 3052 2955 2873 2620 2971 3095 2842 2486 2362 2342 2391 2396 2342 2029 1912 1887 2001 1896 1673 1768 1737 1713 2038 2433 2440 2526 2614 2678 2947 3186 3271 3339 3326 3173 3027 2990 3066 3359 3536 3456 3140 2768 2788 2757 2233 2119 2382 2456 2472 2399 2184 2281 2483 2441 2195 1927 1960 2148 2306 2302 2190 2136 1789 1543 1522 1452 1204 1015 530 0 0 0 0
3168 3104 2927 2774 2582 2701 2853 2835 2673 2562 2461 2250 2143 2201 2264 2118 1970 1712 1778 2132 1965 1817 1778 1927 2070 2177 2530 2766 2944 3074 3310 3463 3320 3055 2894 2949 3040 3125 3364 3536 3570 3380 3127 3034 3044 2678 2318 2353 2359 2406 2417 2228 2422 2573 2514 2287 2062 1954 1975 2168 2348 2356 2291 2137 1849 1742 1460 1302 1142 811 32 0 0 0
2964 3063 3016 2919 2755 2798 2798 2746 2725 2565 2484 2463 2223 1989 1969 1938 2034 1927 1749 1952 2078 2022 1989 1930 1954 2484 2834 3006 3052 3393 3478 3022 2706 2714 3137 3469 3518 3508 3588 3653 3604 3358 3179 3110 3141 3140 2592 2294 2250 2302 2360 2321 2561 2756 2692 2361 2141 2046 2057 2124 2256 2364 2359 2302 2149 1896 1722 1349 1232 1048 406 10 0 0
2948 3000 3026 2957 2860 2805 2773 2777 2807 2823 2767 2626 2509 2230 1973 2006 2000 1918 1752 1561 1675 1941 1752 1715 1843 1814 2196 2549 2972 3128 2871 2668 2634 2751 3075 3502 3559 3233 3062 2998 3005 3070 3201 3180 3068 3253 2531 2093 2156 2149 2202 2234 2220 2435 2618 2471 2315 2175 2148 2166 2244 2303 2341 2319 2263 2091 1930 1576 1361 1227 620 294 0 0
2584 2781 2859 2884 2791 2659 2607 2631 2678 2639 2585 2459 2395 2290 2094 1949 1843 1813 1764 1623 1506 1733 1779 1718 1924 2102 2514 2754 2679 2508 2635 2866 2958 3072 3324 3489 2999 2300 2389 2567 2696 2854 2897 2896 2955 2966 2308 2322 2431 2172 2014 1987 2024 2130 2394 2492 2355 2185 2119 2139 2227 2298 2314 2285 2325 2252 2057 1688 1483 1341 867 398 0 0
2471 2542 2669 2750 2672 2592 2567 2442 2314 2308 2299 2214 2102 2084 1983 1819 1746 1749 1703 1635 1711 1761 1763 1830 1861 1976 2206 2307 2499 2658 2800 2924 2954 3010 2983 2548 2010 1732 1823 2128 2314 2562 2754 2987 3123 2926 2650 2501 2427 2198 1983 1882 1898 2009 2266 2414 2332 2200 2145 2140 2192 2258 2291 2322 2330 2346 2167 1734 1536 1402 1039 640 322 0
2234 2384 2455 2471 2452 2257 2855 2587 2442 2239 2226 2148 2050 1915 1734 1723 1679 1675 1637 1474 1316 1266 1282 1389 1632 1992 2119 2224 2253 2297 2418 2517 2480 2457 2159 2020 1960 1991 2069 2192 2363 2594 2746 2921 2971 2980 2829 2400 2025 1889 1840 1790 1793 1933 2093 2246 2288 2267 2232 2197 2214 2260 2292 2299 2309 2363 2228 1727 1496 1402 1097 856 549 0
1766 1847 1896 1852 2346 3028 3148 2480 2163 2091 2186 2576 2032 1824 1700 1554 1553 1588 1578 1462 1310 1255 1264 1305 1285 1261 1440 1584 1776 1952 2051 2056 2045 2031 2028 2042 1999 1758 1645 1618 1725 2031 2554 2827 2941 2867 2422 1962 1864 1870 1767 1659 1687 1792 1938 2104 2168 2200 2241 2273 2267 2259 2234 2175 2172 2290 2251 1697 1407 1310 1129 1017 857 432
1586 1633 1665 1603 1762 2921 3664 3233 2471 1871 1655 1633 1765 2201 2101 1779 1408 1386 1432 1420 1322 1281 1348 1340 1337 1412 1483 1565 1677 1801 1857 1901 1935 1952 1916 1826 1785 1731 1598 1668 1741 1488 1815 2416 1877 1256 1170 1389 1334 1256 1369 1557 1783 1999 2106 2083 2067 2081 2097 2153 2166 2121 2068 2004 1977 2174 2194 1682 1310 1250 1103 1079 1064 725
1461 1413 1393 1344 1274 1172 1064 1102 1737 2308 2308 1953 1616 1450 1472 1667 1777 1562 1372 1276 1235 1373 1487 1512 1584 1604 1634 1662 1706 1775 1804 1829 1784 1738 1685 1661 1652 1650 1603 1564 1339 992 2752 1594 1145 1096 1008 946 1136 1397 1589 1792 1972 2078 2100 2066 2033 2034 2039 2028 1999 1942 1843 1844 1860 2096 2109 1673 1495 1376 1262 1212 1160 994
1555 1526 1383 1110 1071 1070 1409 1919 989 395 787 1440 1719 1644 1417 1262 1205 1424 1674 1568 1409 1431 1596 1705 1748 1784 1845 1858 1852 1859 1865 1768 1721 1707 1672 1637 1566 1453 1368 1325 1290 1424 1582 1531 1392 1234 1138 1285 1446 1406 1465 1592 1650 1476 1250 1236 1326 1512 1625 1662 1740 1834 1883 1812 1748 1970 1974 1605 1642 1569 1414 1385 1309 1188
1258 1290 1345 1308 1138 901 780 716 626 369 686 886 1150 1268 1222 1105 1016 980 1008 1092 1568 1993 2052 1936 1735 1632 1706 1682 1514 1601 1741 1771 1718 1601 1478 1431 1462 1522 1635 1807 2040 1984 1765 1530 1370 1278 1128 1116 1468 1701 1755 1644 1416 1156 1062 1143 1200 1211 1349 1579 1809 1943 1943 1746 1604 1791 1854 1652 1686 1644 1476 1463 1420 1299
1150 1066 1056 1100 1120 1042 862 257 266 115 30 89 351 592 649 642 606 373 396 640 736 806 939 1247 1524 1582 1487 1511 1539 1571 1703 1816 1767 1581 1541 1743 1953 2018 1938 1808 1588 1380 1221 1250 1360 1285 1271 1653 1825 1837 1686 1566 1544 1441 1439 1220 1069 1124 1274 1462 1664 1941 2014 1725 1537 1636 1740 1658 1699 1701 1589 1498 1496 1337
1358 1223 1045 918 863 831 822 789 304 540 479 140 53 75 204 335 402 396 433 276 310 495 409 402 477 708 820 871 864 781 648 474 453 795 993 970 963 922 809 585 450 458 470 1149 1638 1820 1874 1836 1666 1622 1682 1784 1793 1709 1032 563 702 904 1027 1171 1481 1828 1886 1710 1549 1591 1611 1642 1712 1726 1641 1530 1545 1438
1409 1360 1270 1106 878 293 243 272 0 0 102 282 252 174 122 135 199 292 430 241 1 393 0 204 568 562 552 536 500 446 429 535 751 962 1142 1106 1034 1086 1009 871 712 612 512 816 1334 1498 1582 1605 1696 1812 1865 1860 1521 848 399 267 560 762 944 1163 1433 1672 1773 1650 1540 1551 1529 1566 1652 1678 1650 1516 1536 1498
1289 1284 1249 1484 1054 813 231 98 0 0 0 30 100 151 194 208 232 279 458 748 877 901 866 825 796 786 822 847 916 957 1042 1150 1327 1546 1464 1280 1065 974 900 743 688 719 712 723 1189 1603 1494 1518 1615 1652 1372 1035 583 288 206 598 837 773 770 937 1263 1528 1606 1510 1443 1437 1414 1415 1501 1555 1576 1483 1526 1518
1028 1112 1127 1420 1109 985 906 333 0 0 0 7 60 102 146 195 226 244 266 411 623 828 1020 1212 1337 1384 1384 1403 1432 1469 1561 1715 1840 1875 1732 1460 1055 790 595 505 487 522 585 705 838 770 781 712 742 649 543 394 249 13 174 308 584 670 735 738 915 1285 1392 1350 1284 1264 1233 1233 1300 1397 1466 1451 1472 1514
1039 873 923 977 988 960 890 377 0 0 0 16 153 223 290 349 405 439 351 392 430 471 490 562 605 658 723 737 824 837 855 759 841 795 716 642 26 6 45 55 27 94 463 604 657 649 637 596 598 594 604 480 352 259 754 762 654 598 618 629 801 1092 1230 1231 1197 1136 1122 1178 1221 1283 1348 1354 1458 1494
1476 1530 1553 1491 1348 1170 1000 619 365 60 0 21 393 474 441 475 412 282 377 444 709 475 497 575 654 694 772 827 917 966 996 960 892 795 668 500 0 0 1 13 30 102 127 142 176 673 726 680 696 704 714 618 459 355 198 270 19 0 0 649 882 974 1140 1182 1153 1203 1237 1214 1165 1200 1277 1350 1458 1497
1312 1467 1596 1692 1774 1780 1737 1586 1351 1102 943 876 846 793 712 668 638 606 563 526 500 506 720 851 949 958 912 983 1069 1098 1112 1144 1133 1025 913 906 1087 1155 1186 1156 1012 884 732 391 0 391 679 753 766 776 789 729 589 433 470 624 647 590 492 715 933 1020 1073 1214 1297 1312 1237 1188 1150 1176 1277 1363 1484 1501
1069 1102 1254 1404 1521 1637 1715 1726 1687 1592 1391 1231 1140 1076 1047 981 913 840 781 752 743 862 1035 1162 1229 1315 1370 1381 1375 1367 1347 1323 1273 1231 1216 1187 1280 1462 1484 1505 1540 1547 1684 1809 1666 1352 1129 1001 921 886 878 833 712 633 681 774 781 624 704 1070 1248 1338 1345 1366 1339 1286 1208 1156 1149 1169 1246 1345 1427 1490
1368 1364 1339 1239 1172 1272 1438 1550 1584 1600 1571 1444 1313 1309 1275 1264 1225 1174 1099 1101 1081 1292 1505 1577 1622 1663 1681 1679 1679 1655 1613 1580 1561 1535 1545 1521 1431 1300 1506 1653 1793 1896 1971 2077 2188 2227 2020 1776 1557 1312 1106 1020 921 904 1024 1017 1002 879 999 1005 973 1031 1180 1223 1217 1190 1175 1137 1146 1208 1296 1360 1402 1443
1434 1404 1384 1388 1390 1338 1212 1148 1094 1185 1316 1443 1463 1382 1372 1355 1361 1396 1368 1318 1381 1523 1678 1821 1847 1844 1862 1876 1855 1835 1809 1794 1770 1740 1732 1681 1614 1542 1774 1822 1881 1975 1978 2051 2102 2211 2270 2265 2111 1959 1734 1524 1399 1383 1333 1227 1118 1038 897 755 702 745 834 928 947 1010 1079 1129 1217 1374 1482 1510 1524 1495
1319 1339 1336 1318 1305 1365 1438 1503 1402 1193 1108 1197 1344 1438 1412 1374 1337 1333 1332 1347 1531 1733 1831 1881 1946 1971 1972 1992 1968 1944 1897 1854 1843 1842 1820 1781 1751 1668 1623 1559 1544 1560 1480 1513 1566 1678 1780 1893 2014 2066 2005 1912 1752 1623 1516 1358 1267 1201 1065 912 794 764 863 960 1072 1140 1190 1260 1331 1417 1511 1561 1617 1605
1415 1408 1395 1406 1413 1422 1463 1519 1576 1649 1605 1308 1182 1287 1370 1373 1361 1318 1273 1524 1630 1658 1598 1521 1484 1431 1418 1467 1596 1798 1888 1901 1884 1886 1880 1850 1840 1785 1694 1604 1535 1531 1511 1457 1368 1253 1569 1701 1799 1828 1816 1810 1751 1697 1566 1427 1334 1256 1180 1091 984 976 1185 1218 1309 1350 1360 1357 1361 1396 1486 1589 1641 1678
1212 1287 1308 1328 1372 1410 1445 1484 1551 1636 1701 1731 1686 1464 1340 1380 1374 1365 1300 1271 1189 1177 1184 1165 1145 1123 1193 1285 1338 1350 1390 1461 1567 1710 1813 1815 1797 1741 1664 1575 1534 1482 1443 1357 1213 1097 1173 1481 1597 1666 1714 1750 1739 1677 1582 1500 1399 1314 1222 1150 1098 1121 1173 1233 1257 1302 1341 1378 1419 1492 1572 1623 1690 1769
1145 1185 1236 1298 1327 1365 1374 1425 1482 1537 1584 1672 1715 1730 1682 1571 1528 1522 1506 1472 1405 1337 1271 1199 1183 1312 1345 1369 1442 1490 1554 1585 1564 1468 1387 1320 1364 1421 1434 1452 1456 1477 1432 1360 1225 1067 913 1218 1394 1470 1497 1516 1517 1473 1425 1352 1319 1278 1213 1154 1118 1113 1111 1194 1277 1373 1400 1430 1513 1558 1627 1700 1777 1823
882 973 1068 1095 1109 1117 1168 1226 1305 1364 1430 1497 1547 1559 1569 1584 1620 1664 1605 1482 1286 1172 1257 1511 1663 1658 1542 1432 1311 1229 1234 1255 1262 1286 1274 1258 1195 1210 1285 1315 1436 1470 1430 1364 1263 1170 1058 987 1058 1310 1390 1434 1432 1359 1307 1220 1155 1152 1164 1190 1185 1183 1171 1205 1294 1387 1480 1573 1635 1674 1684 1761 1845 1911
716 783 836 958 1004 1016 1013 1043 1116 1182 1203 1234 1280 1338 1365 1344 1283 1297 1382 1526 1667 1734 1706 1610 1601 1633 1595 1444 1264 1165 1168 1191 1204 1191 1187 1164 1168 1148 1176 1283 1440 1499 1496 1420 1264 1146 1102 1110 1081 1072 1046 1283 1406 1480 1498 1487 1461 1454 1442 1412 1359 1382 1400 1447 1539 1612 1694 1775 1827 1858 1872 1888 1942 2001
396 404 418 445 532 675 791 922 967 993 1025 1075 1072 1052 1051 1121 1266 1350 1385 1404 1420 1461 1489 1459 1425 1428 1435 1408 1343 1283 1257 1241 1239 1204 1102 1013 984 1006 1037 1081 1188 1393 1501 1481 1345 1191 1105 1105 1116 1173 1190 1203 1189 1232 1311 1498 1636 1679 1615 1613 1570 1587 1621 1687 1722 1764 1804 1859 1886 1902 1908 1878 1793 1816
211 224 220 246 256 273 283 402 537 642 718 797 865 903 938 972 1001 1050 1059 1065 1252 1405 1461 1436 1419 1416 1391 1389 1360 1330 1270 1234 1254 1254 1231 1172 1035 983 1004 1022 1063 1142 1300 1389 1337 1254 1136 1115 1186 1252 1302 1343 1346 1374 1412 1370 1617 1699 1726 1722 1707 1690 1749 1770 1796 1836 1882 1899 1929 1905 1898 1822 1738 1663
57 124 141 157 170 220 239 211 337 414 465 544 606 646 687 828 902 938 998 1007 1066 1132 1244 1314 1341 1348 1360 1411 1442 1430 1373 1317 1312 1327 1359 1295 1252 1267 1307 1363 1382 1250 1158 1231 1242 1244 1226 1177 1117 1230 1316 1412 1463 1486 1498 1490 1531 1657 1605 1693 1779 1778 1805 1880 1889 1895 1919 1941 1959 1977 1930 1901 1785 1695
7 6 6 4 5 15 39 26 282 386 492 570 619 656 707 749 808 858 917 958 1012 1093 1199 1302 1371 1415 1437 1486 1472 1439 1390 1339 1314 1383 1477 1508 1486 1461 1442 1406 1428 1456 1356 1273 1241 1263 1284 1298 1249 1259 1411 1477 1559 1596 1573 1581 1502 1515 1537 1689 1815 1855 1896 1919 1985 1980 1954 1970 2002 1997 2028 1979 1890 1873
10 8 7 6 6 7 8 106 152 212 290 376 486 580 738 894 902 885 901 1024 1217 1324 1370 1372 1412 1450 1470 1423 1420 1360 1348 1376 1454 1512 1517 1511 1506 1496 1475 1394 1371 1369 1329 1314 1323 1320 1321 1334 1307 1361 1467 1512 1583 1598 1618 1724 1708 1577 1438 1342 1275 1527 1904 1978 2026 2024 2006 2019 1975 1993 1967 1844 1762 1759
9 7 4 4 6 6 7 7 8 8 5 4 3 140 368 433 628 835 945 983 1016 1116 1220 1342 1489 1470 1339 1371 1297 1422 1464 1483 1480 1465 1494 1536 1524 1481 1384 1340 1416 1448 1398 1323 1322 1339 1332 1259 1191 1184 1253 1572 1675 1763 1668 1513 1526 1444 1263 1166 1040 1047 1132 1284 1632 1840 1924 1897 1886 1932 1876 1785 1586 1392
8 6 5 6 8 8 8 8 8 7 5 6 80 210 274 374 460 596 722 883 880 995 1123 1185 1152 1153 1209 1271 1235 1264 1242 1294 1294 1338 1342 1338 1337 1294 1234 1296 1360 1420 1359 1371 1469 1537 1606 1510 1449 1384 1445 1461 1394 1200 1191 1306 1481 1534 1519 1511 1351 1180 1102 1088 1102 1248 1663 1752 1781 1819 1815 1730 1569 1460
8 7 9 11 12 11 10 10 9 8 6 5 4 5 107 236 296 360 420 548 688 741 805 831 859 1018 1114 1044 1132 1151 1230 1219 1161 1121 1171 1201 1162 1127 1132 1141 1248 1312 1271 1293 1378 1364 1385 1404 1401 1429 1483 1510 1529 1445 1345 1340 1363 1461 1562 1595 1526 1333 1223 1230 1156 1059 1189 1594 1753 1734 1704 1654 1529 1377
0 0 2 7 10 10 9 9 8 8 7 6 5 5 4 4 3 3 256 334 409 464 557 653 806 858 834 835 829 831 856 883 914 1051 1137 1151 1116 1117 1112 1075 1110 1174 1239 1213 1181 1256 1322 1274 1268 1314 1412 1516 1596 1510 1482 1514 1582 1604 1580 1578 1556 1471 1374 1322 1266 1207 1182 1475 1715 1863 1876 1818 1698 1601
0 0 0 4 6 7 9 9 8 8 8 6 5 4 4 4 4 4 24 227 348 386 461 584 752 852 847 907 934 969 1000 1020 1005 1032 1078 1170 1258 1340 1365 1319 1203 1104 1082 1102 1103 1126 1144 1086 1062 1077 1168 1291 1412 1451 1519 1550 1624 1734 1734 1678 1674 1718 1762 1698 1579 1421 1351 1459 1556 1565 1638 1682 1710 1758
Wind_Speed
9 9 9 9 10 9 7 9 8 7 9 8 7 6 7 6 8 8 8 7 6 8 8 7 7 8 8 7 7 6 3 1 3 5 6 6 6 6 9 11 14 15 17 18 19 20 19 19 19 19 18 18 18 18 21 23 24 24 23 22 23 23 25 26 26 24 19 14 8 nan nan nan nan nan
7 7 9 9 11 10 8 8 8 7 6 7 7 6 7 7 8 6 7 7 5 6 7 7 8 9 8 7 5 3 1 2 3 5 6 7 7 8 10 12 14 16 18 19 21 21 21 20 19 19 19 18 18 19 22 25 26 25 23 22 23 23 25 27 26 22 17 11 6 nan nan nan nan nan
5 6 8 9 9 9 9 8 9 8 6 6 8 9 8 8 8 7 8 8 8 6 7 8 7 6 6 7 6 3 2 2 3 5 6 6 6 7 8 10 13 14 16 18 20 21 21 20 20 19 19 19 19 20 22 24 25 24 23 22 23 24 25 26 24 20 15 11 6 nan nan nan nan nan
5 6 7 8 7 8 8 9 9 9 8 7 8 8 8 8 8 9 9 7 6 8 7 6 5 5 6 7 8 7 8 7 6 6 6 5 5 6 8 7 10 13 15 16 18 19 20 20 20 21 20 20 20 21 22 23 24 23 21 22 23 24 25 25 23 18 14 12 8 nan nan nan nan nan
6 6 7 7 8 7 7 7 8 10 9 10 9 8 8 8 9 10 10 8 8 10 9 7 5 7 9 8 9 9 8 7 7 8 7 6 6 7 7 8 9 11 12 14 15 17 19 20 21 21 20 21 20 19 20 21 22 21 20 21 23 23 24 24 21 17 15 13 9 7 nan nan nan nan
5 5 6 7 8 8 7 8 8 8 10 10 10 8 6 6 6 8 11 9 8 9 11 9 8 7 9 7 8 9 8 7 7 6 6 6 9 8 8 8 8 7 8 10 12 14 18 20 21 20 19 19 18 17 18 18 19 20 20 21 22 23 24 23 20 17 17 14 10 8 nan nan nan nan
4 4 5 5 6 8 9 8 8 8 7 9 9 8 7 7 7 8 10 11 9 8 8 9 9 8 9 9 7 7 8 7 7 7 6 6 7 7 7 7 8 8 7 7 9 14 17 19 19 18 17 17 17 17 17 18 19 20 21 22 22 23 23 22 19 18 17 15 12 9 nan nan nan nan
1 2 3 4 4 6 7 7 8 8 8 7 7 8 7 7 7 8 10 9 9 9 8 10 9 8 9 9 9 8 7 7 6 8 7 6 5 5 5 7 9 10 10 10 11 15 17 18 18 18 17 17 18 18 19 20 21 21 22 23 23 23 22 21 19 18 18 16 14 12 nan nan nan nan
1 1 1 2 3 4 5 6 7 7 7 7 7 6 7 6 6 7 8 7 9 9 8 8 8 9 9 9 8 9 7 5 6 7 6 5 5 5 7 9 11 10 11 12 12 13 15 16 16 17 17 17 17 18 19 20 22 23 24 24 23 22 21 20 19 18 17 17 16 14 12 nan nan nan
3 2 2 2 2 3 3 4 4 5 5 6 6 6 5 5 6 7 6 7 7 8 6 7 7 10 7 7 7 7 6 4 3 3 4 7 8 10 8 10 12 12 13 13 13 13 12 14 16 17 17 16 16 18 19 21 22 24 24 24 23 22 20 19 18 17 18 18 18 16 14 11 nan nan
5 4 4 4 4 3 3 4 4 4 4 4 4 4 4 5 6 5 5 5 6 6 5 6 5 4 4 5 3 4 6 6 8 7 5 7 11 12 12 10 11 12 11 13 16 16 16 16 16 17 18 18 18 20 21 22 23 24 24 23 22 21 20 19 18 17 17 18 19 17 15 12 nan nan
6 6 6 6 5 5 4 4 5 5 5 6 5 4 5 5 5 4 4 5 4 4 5 4 2 4 4 6 6 7 8 7 7 11 11 8 8 8 11 14 11 11 12 10 11 15 14 12 15 17 18 20 21 22 21 23 24 24 23 22 22 21 20 19 17 16 17 18 19 18 16 14 11 nan
6 7 8 8 8 7 4 2 3 4 5 7 6 5 7 5 5 4 4 4 5 4 5 4 6 6 5 5 6 6 7 7 7 8 12 9 9 10 10 10 14 15 14 12 13 13 15 12 12 15 16 19 22 21 23 22 25 25 23 22 22 21 20 19 17 15 16 17 18 18 16 14 12 nan
6 6 7 8 5 4 4 3 2 2 2 4 7 8 10 9 8 7 7 7 7 7 7 7 7 7 7 7 8 8 7 7 7 6 7 8 7 9 9 12 14 14 14 13 13 15 15 15 14 17 17 17 22 21 23 24 24 24 25 23 21 21 20 19 17 15 14 15 16 17 16 14 12 10
4 6 7 8 7 7 7 7 3 2 2 3 3 3 5 9 11 11 10 9 10 11 11 10 11 11 8 6 7 8 5 7 6 7 9 8 8 8 9 10 13 14 16 13 17 16 18 18 17 18 18 18 19 22 22 24 26 26 24 23 21 20 20 19 18 16 14 14 14 15 15 13 12 10
6 6 6 7 8 9 9 10 11 9 5 4 3 3 3 3 6 9 11 11 12 13 12 11 10 12 9 6 8 7 9 6 8 8 9 9 8 7 8 12 15 16 17 13 11 11 18 19 16 16 18 20 22 22 22 23 25 25 24 23 22 21 19 19 18 17 15 13 12 12 13 12 11 9
8 8 8 8 9 8 4 6 10 12 12 10 6 5 6 7 7 6 5 7 10 13 12 11 10 11 10 9 8 10 10 12 11 10 10 11 11 12 11 11 14 13 20 16 10 8 12 19 14 14 17 19 22 22 21 21 23 23 23 23 23 22 20 18 17 17 15 14 12 11 11 11 10 9
9 9 9 9 9 10 10 10 10 12 13 14 15 15 13 12 8 5 4 4 4 9 12 13 10 9 13 8 10 11 13 13 11 11 9 13 13 12 11 12 15 17 24 18 13 9 9 18 17 14 16 20 20 22 21 18 18 21 22 23 23 23 22 19 17 15 14 14 13 11 10 10 9 8
9 10 10 10 9 10 11 12 12 12 nan nan 12 12 12 12 12 11 11 11 12 11 11 10 9 8 10 9 9 13 15 14 13 13 13 17 18 16 17 17 16 16 20 22 21 12 13 20 20 17 17 19 20 22 21 19 17 17 21 23 24 24 24 21 18 15 13 12 13 13 11 10 9 8
10 10 11 11 11 11 11 10 10 11 13 13 nan nan 10 10 10 10 10 9 10 11 12 11 10 10 9 9 10 13 16 16 16 20 20 21 20 18 17 15 17 18 21 28 25 19 18 20 22 18 19 22 20 21 23 20 19 18 20 22 24 25 25 23 21 17 14 12 12 13 12 10 8 6
12 12 12 12 11 11 12 11 nan nan 13 13 12 11 10 9 9 8 12 12 nan 6 nan 5 5 5 6 8 9 10 11 15 19 23 20 16 18 19 17 17 20 18 24 28 31 26 21 22 25 20 22 24 23 23 22 22 24 23 21 21 23 25 25 25 23 20 17 15 13 13 13 11 8 6
16 15 10 12 12 11 11 nan nan nan nan nan nan 14 13 11 8 10 16 19 17 13 9 6 6 6 8 9 11 13 13 13 23 26 18 17 24 22 22 21 22 22 26 26 38 32 24 26 30 27 25 26 25 25 25 25 29 30 28 25 24 25 25 25 24 22 20 19 17 15 15 13 12 11
19 17 14 11 11 13 12 10 nan nan nan nan nan 14 14 11 10 14 21 21 18 22 23 19 19 17 14 15 18 17 14 15 22 26 21 22 27 23 23 25 26 24 24 28 43 35 28 32 30 33 28 25 23 nan 26 25 27 29 29 29 27 24 24 24 24 22 21 19 18 17 18 17 19 16
21 19 17 16 13 11 11 12 nan nan nan nan 16 17 15 12 10 18 25 24 24 24 22 20 23 21 22 23 24 24 24 24 26 27 26 27 nan nan nan nan nan nan 28 33 42 37 29 33 29 34 33 26 23 26 28 26 27 28 30 30 27 27 27 25 23 23 21 20 19 19 20 20 23 21
23 22 21 20 16 14 13 13 14 nan nan nan 20 20 18 15 13 20 26 24 23 25 24 23 23 23 24 25 26 27 27 28 29 31 30 30 nan nan nan nan nan 26 25 30 42 34 28 32 28 32 32 33 27 24 25 26 nan nan nan 29 27 28 28 25 26 25 24 22 21 21 21 22 24 23
25 24 24 24 21 17 16 15 15 15 18 20 23 18 16 13 14 18 22 23 25 25 25 25 25 24 25 25 27 28 29 30 31 31 32 33 33 34 32 31 29 26 25 32 nan 34 30 28 28 29 32 32 25 27 23 24 26 28 29 27 26 27 28 27 27 24 25 26 24 23 22 24 23 24
27 28 26 25 21 20 19 18 17 18 17 23 24 17 16 17 18 24 27 26 26 26 25 25 23 23 24 25 26 28 29 31 33 32 33 34 36 36 35 34 34 30 27 30 40 38 35 30 33 34 31 33 28 26 26 25 26 32 29 27 26 26 27 28 26 24 26 26 24 26 25 23 22 22
30 29 28 28 32 36 34 32 30 26 24 25 22 22 21 21 25 29 29 28 27 26 26 25 23 22 24 26 26 27 29 30 32 32 33 33 35 36 36 36 35 33 31 31 35 39 38 31 29 33 33 33 31 28 24 26 26 31 28 29 27 26 27 27 25 25 27 28 28 29 29 26 25 26
31 31 33 33 31 28 26 25 27 29 27 25 25 24 24 27 31 31 32 31 32 30 27 26 25 24 25 27 26 28 30 31 32 34 33 34 34 35 36 36 36 34 35 35 36 38 39 36 31 31 34 34 32 27 27 22 25 26 29 30 26 27 29 28 27 26 26 29 28 29 28 27 28 30
32 30 29 29 29 27 27 28 28 28 28 29 29 28 32 36 34 35 35 35 35 32 30 30 29 28 30 31 31 31 32 32 30 32 33 34 33 36 37 36 32 32 33 35 36 37 39 38 35 34 32 31 30 25 24 22 19 20 25 27 23 29 30 31 30 28 29 28 28 28 25 27 27 32
37 36 35 34 30 29 26 25 25 25 28 31 32 34 36 36 36 36 37 37 36 34 33 34 34 33 33 34 35 34 35 33 31 34 36 36 34 37 40 38 31 29 31 34 35 36 38 37 37 38 33 28 27 25 22 23 17 18 22 25 28 24 29 32 30 30 30 28 27 26 25 27 27 28
37 35 35 32 32 32 32 32 33 32 32 31 32 33 36 37 37 36 35 36 36 35 36 37 37 37 38 38 36 36 36 34 33 38 41 38 35 38 42 40 32 30 31 34 37 39 39 39 39 39 35 30 26 23 25 22 18 18 20 25 28 25 29 32 31 29 31 32 29 25 25 27 26 26
34 34 33 32 31 32 32 31 31 31 31 32 33 34 36 38 38 39 41 38 37 37 40 39 37 36 38 38 40 40 38 36 36 41 41 39 37 37 42 37 32 32 32 31 36 39 41 39 40 38 36 31 27 24 23 20 21 24 23 25 29 28 29 30 31 30 38 36 29 27 25 26 25 26
33 31 30 30 30 30 31 30 30 30 31 32 32 32 32 33 34 36 37 37 37 40 41 41 40 39 40 39 40 41 39 38 39 41 42 39 40 39 39 37 34 35 35 33 34 36 38 39 39 37 34 30 27 25 25 23 21 27 28 28 29 28 28 31 31 33 37 34 31 27 25 23 25 28
36 33 31 30 30 30 29 29 29 30 32 32 31 30 30 30 30 31 33 35 39 39 39 40 41 41 42 40 39 39 38 37 38 41 43 42 40 40 40 39 35 35 36 34 34 37 38 37 39 37 36 33 29 25 27 28 26 27 29 29 30 29 28 31 32 33 33 31 33 28 24 24 25 30
38 38 37 35 34 33 32 30 30 31 32 32 31 30 30 29 30 30 30 33 37 36 36 37 39 41 41 41 40 39 38 39 38 39 41 42 40 40 41 39 37 36 36 35 34 38 39 37 39 38 35 34 32 25 24 31 34 31 32 29 32 32 31 31 34 35 34 32 33 31 27 24 23 28
44 43 42 39 38 38 37 35 34 34 34 34 33 32 30 29 29 30 31 34 33 32 31 33 33 35 37 39 40 40 40 40 38 38 38 40 41 40 39 39 38 37 37 35 37 39 42 38 40 39 36 34 31 25 21 33 30 33 36 33 31 35 35 36 37 35 34 36 36 34 30 28 25 28
nan 49 47 46 44 43 42 41 40 39 37 37 36 35 33 31 30 30 32 33 32 32 31 31 31 32 35 38 39 37 36 36 36 36 37 41 42 40 40 39 38 38 37 37 40 42 44 41 40 38 37 33 30 28 24 32 36 29 31 33 30 33 40 39 37 34 36 40 38 36 36 31 27 28
nan nan nan nan nan nan nan nan 47 45 43 41 40 38 37 35 34 34 34 34 33 33 33 34 35 37 38 38 38 36 34 34 34 35 38 41 43 42 41 41 40 39 39 36 40 44 45 43 40 38 38 35 32 30 30 30 29 32 35 34 34 36 38 39 35 36 39 42 42 42 39 34 33 34
nan nan nan nan nan nan nan 52 52 52 51 49 46 45 43 41 39 38 37 37 36 36 35 35 35 37 37 36 36 35 34 32 32 36 39 42 45 46 45 44 42 41 40 37 36 39 43 42 42 40 40 38 35 35 40 36 30 30 31 34 39 42 40 43 40 39 39 43 50 50 39 39 36 38
nan nan nan nan nan nan nan nan nan nan nan nan nan 47 47 46 45 44 43 41 41 41 40 39 39 38 37 36 35 35 33 33 35 38 40 42 44 46 45 46 44 43 43 38 34 34 37 40 40 39 41 40 43 49 44 36 27 22 29 34 40 42 41 44 46 46 43 48 53 46 39 39 39 40
nan nan nan nan nan nan nan nan nan nan nan nan nan 49 48 47 46 45 45 44 43 42 41 40 40 40 38 37 37 38 37 35 36 39 42 43 44 44 43 44 40 38 40 39 34 33 37 43 44 46 43 45 48 48 42 37 30 26 29 34 41 42 43 44 45 46 47 54 54 46 40 38 44 38
nan nan nan nan nan nan nan nan nan nan nan nan nan nan 49 48 48 48 48 48 48 48 47 45 43 41 40 39 40 41 39 36 37 40 41 43 43 41 40 39 36 34 35 36 34 34 38 45 47 47 45 46 45 48 43 38 35 34 33 33 35 46 44 42 43 41 38 43 49 47 43 44 50 42
nan nan nan nan nan nan nan nan nan nan nan nan nan nan nan nan nan nan 48 48 49 49 49 47 46 46 45 45 44 43 41 38 38 38 39 41 42 39 36 35 34 32 33 34 33 35 39 44 48 47 46 43 44 45 42 39 37 37 36 36 37 38 39 46 45 39 35 35 36 37 35 37 39 36
nan nan nan nan nan nan nan nan nan nan nan nan nan nan nan nan nan nan nan 48 49 49 48 48 48 47 46 46 45 43 43 43 42 42 42 42 42 41 39 38 36 33 30 30 32 33 38 43 46 46 44 42 43 43 41 40 37 34 33 34 32 32 35 43 45 43 41 40 37 37 35 35 32 29
Wind_Direction
124 130 130 124 126 129 143 157 160 167 177 181 183 185 181 202 193 181 181 180 190 187 198 210 197 213 204 201 211 220 238 307 344 337 346 358 359 19 26 25 19 14 12 9 10 14 21 25 24 22 22 21 18 19 19 11 6 2 353 351 352 352 346 343 345 346 345 344 351 nan nan nan nan nan
134 139 144 149 141 135 150 148 155 159 176 185 185 191 195 212 198 203 193 173 191 195 195 220 217 210 201 214 214 251 221 48 11 345 351 353 351 17 21 16 14 12 11 11 12 18 25 30 28 23 20 17 14 13 16 10 6 3 357 351 354 353 348 345 349 350 350 351 360 nan nan nan nan nan
153 154 157 155 146 140 143 159 156 154 166 180 196 205 213 207 230 233 222 200 190 221 213 217 228 229 215 219 232 240 287 301 324 331 333 330 359 17 355 7 9 11 13 15 18 20 25 27 26 21 15 11 9 8 12 11 6 5 358 352 354 354 350 350 353 358 2 7 20 nan nan nan nan nan
182 184 173 165 156 153 162 165 164 160 168 190 198 217 221 213 223 238 229 222 185 206 225 215 203 214 229 217 229 228 241 244 253 282 286 313 335 325 337 354 13 13 16 19 24 23 22 22 20 16 11 7 5 3 8 11 8 7 359 354 355 355 353 354 0 7 17 25 34 nan nan nan nan nan
191 191 192 185 178 180 177 176 179 177 171 182 196 210 225 218 216 227 231 228 190 199 232 231 213 212 235 237 250 247 248 246 256 276 298 304 314 329 341 347 7 24 23 23 25 21 15 13 12 10 6 1 2 5 8 10 10 8 1 356 357 358 358 359 6 18 27 34 46 66 nan nan nan nan
191 197 194 187 187 192 193 190 195 189 183 180 185 194 218 214 209 227 236 240 229 206 226 233 214 225 252 252 267 265 252 252 265 261 281 308 324 340 348 348 352 22 29 24 20 11 6 6 7 6 3 358 1 5 10 14 13 10 3 359 2 5 5 7 12 26 29 37 49 61 nan nan nan nan
182 184 184 183 192 197 198 200 198 203 193 191 190 185 207 205 208 226 243 247 237 223 221 259 251 257 259 273 274 268 278 286 298 298 305 318 324 333 341 343 340 354 17 22 10 0 1 4 8 8 9 9 8 9 14 16 15 10 4 2 7 11 11 13 19 28 31 37 43 55 nan nan nan nan
178 154 174 169 183 191 198 203 204 201 204 204 197 195 199 214 203 220 243 251 256 249 241 237 260 261 251 259 276 286 284 293 292 305 313 322 334 337 335 331 329 331 346 358 6 5 6 11 15 17 18 17 13 11 11 11 10 8 6 6 12 16 18 20 25 30 33 33 38 44 nan nan nan nan
194 162 164 142 179 191 195 199 205 203 201 208 224 211 204 212 211 222 246 254 264 262 252 243 252 262 264 274 276 288 284 277 291 297 312 331 333 329 330 321 326 333 336 337 351 1 8 11 14 16 18 16 10 7 7 5 6 8 8 9 14 19 23 26 29 32 34 31 33 33 45 nan nan nan
210 204 185 167 178 186 189 185 201 209 206 208 220 233 222 216 218 222 228 247 255 264 266 269 239 252 265 259 278 299 307 303 281 278 317 311 311 311 304 311 316 318 324 331 338 341 349 2 7 9 11 13 7 5 5 3 5 10 11 11 14 21 28 32 33 32 32 30 29 31 37 46 nan nan
213 207 201 195 199 190 185 178 189 202 212 221 220 226 233 242 245 236 230 241 256 266 262 254 278 258 261 292 274 289 299 309 315 319 302 292 300 302 309 306 311 319 331 342 348 344 348 350 344 352 3 10 12 11 10 6 8 12 16 13 14 21 29 36 36 32 32 29 25 26 34 44 nan nan
220 221 218 214 213 213 204 203 194 215 209 227 220 214 226 225 242 247 249 245 257 258 263 281 257 283 266 253 286 283 273 275 290 310 312 305 293 298 303 313 319 323 329 342 334 333 343 351 348 350 354 2 9 13 9 9 9 16 18 15 15 19 27 35 37 33 33 30 24 24 32 41 51 nan
229 225 226 225 227 228 226 226 221 223 238 239 234 222 241 238 243 237 243 249 248 246 255 244 269 267 261 282 284 279 296 317 330 302 290 292 303 310 305 314 327 339 345 340 332 337 341 344 337 338 341 349 353 1 3 1 9 17 17 17 14 16 24 32 34 33 35 33 26 24 32 42 50 nan
243 237 234 228 224 225 220 222 229 213 222 252 255 247 253 255 255 258 260 261 268 273 271 280 284 281 288 296 306 307 310 311 288 278 289 295 301 291 303 310 323 331 334 335 333 338 338 340 343 337 346 346 338 345 342 350 357 6 12 13 12 13 20 27 30 29 30 31 26 25 30 40 47 50
238 238 237 231 217 214 215 215 209 215 206 220 224 229 262 272 272 265 265 263 270 273 277 276 278 284 286 294 298 302 303 289 297 292 288 297 291 297 288 288 294 309 326 331 322 321 323 329 339 335 340 342 336 338 346 356 359 7 8 7 6 8 14 22 26 27 24 22 21 22 27 35 44 44
237 238 241 240 239 236 236 232 229 227 222 218 214 212 219 259 293 293 282 271 263 268 273 274 282 280 286 283 276 277 278 283 270 279 284 291 299 293 288 290 295 302 300 314 308 315 310 318 332 327 330 333 330 334 346 354 356 0 4 2 1 1 7 16 21 25 21 12 9 15 21 30 37 36
241 243 244 242 246 247 247 241 240 240 234 232 227 211 202 208 221 230 245 269 272 272 276 279 276 284 277 274 278 282 277 275 268 263 272 280 285 287 283 284 279 281 293 298 298 296 293 299 312 318 323 324 323 324 334 346 347 351 355 357 357 355 358 7 15 19 16 4 356 3 14 24 31 31
250 254 258 256 253 258 258 257 253 249 249 244 241 240 242 242 235 242 276 277 261 260 266 271 276 272 271 275 276 280 273 270 272 269 273 273 269 271 282 280 280 278 283 294 286 273 275 293 306 312 314 313 313 317 324 336 337 339 344 348 351 351 352 357 5 10 7 356 347 351 4 16 23 22
262 267 272 276 278 272 273 274 279 272 nan nan 252 248 245 248 249 252 256 263 269 271 271 270 269 262 265 267 268 270 274 278 278 278 273 275 277 274 267 262 273 272 285 288 282 279 278 283 292 303 306 304 308 309 310 320 327 329 333 338 342 345 347 348 352 355 353 344 338 342 351 5 13 15
265 270 276 279 281 284 282 289 306 297 281 273 nan nan 254 248 251 255 265 277 274 273 271 268 265 263 270 277 271 273 275 273 269 266 266 266 269 267 263 267 265 273 277 286 288 280 276 284 290 294 296 295 300 299 299 307 318 322 324 329 334 337 340 342 342 342 336 329 328 331 336 347 0 5
260 263 268 272 274 277 280 293 nan nan 298 282 283 278 271 265 260 261 261 272 nan 282 nan 280 281 274 274 277 281 279 276 273 268 262 257 263 269 269 269 268 269 276 276 281 289 286 285 289 292 292 293 295 297 295 296 298 303 310 312 317 324 328 331 335 337 336 329 322 318 320 322 324 328 334
245 252 266 269 267 268 268 nan nan nan nan nan nan 282 281 279 277 268 265 261 265 283 289 281 270 261 253 257 259 264 270 277 275 278 280 277 272 276 280 277 279 273 275 286 286 285 295 288 291 294 290 289 298 298 300 297 292 296 300 303 311 319 325 329 331 330 327 320 313 310 310 309 302 285
245 246 252 264 270 268 271 283 nan nan nan nan nan 278 277 280 277 272 268 269 265 263 262 259 259 254 260 264 268 271 285 285 282 283 283 274 277 279 280 283 278 274 281 287 289 291 289 291 293 294 285 288 293 nan 293 291 290 292 293 295 299 309 315 319 321 323 321 316 313 309 305 302 293 281
244 246 246 251 262 273 275 279 nan nan nan nan 278 274 274 272 262 263 269 273 272 267 268 266 269 271 269 269 271 273 273 276 280 284 283 281 nan nan nan nan nan nan 283 278 290 294 288 291 292 294 298 291 283 284 284 285 289 291 291 292 296 300 305 308 309 315 313 310 313 311 308 304 297 286
244 242 243 242 246 259 268 274 279 nan nan nan 279 279 280 280 270 258 262 266 271 271 272 273 272 274 274 276 277 277 277 278 278 280 283 284 nan nan nan nan nan 293 295 291 292 291 293 293 292 289 289 291 289 281 281 282 nan nan nan 294 295 295 296 300 297 299 305 313 313 311 309 307 307 300
249 247 245 243 242 245 252 259 268 278 281 286 276 276 284 278 265 259 262 261 264 268 270 270 270 271 272 272 274 278 280 282 283 284 286 289 290 290 292 293 294 296 299 296 nan 303 298 292 299 293 288 287 286 288 279 280 283 283 285 289 291 292 294 294 293 295 295 295 295 301 305 309 309 315
253 252 251 249 248 247 247 250 254 259 268 271 274 282 273 268 259 252 255 255 256 258 261 264 266 268 268 267 268 272 275 277 280 283 286 288 290 291 293 298 301 306 306 296 297 301 301 296 291 295 293 290 288 281 282 279 277 277 277 287 287 287 287 286 290 291 289 290 289 294 297 301 310 313
251 251 254 252 247 245 246 247 245 245 250 261 266 269 269 266 263 265 264 263 263 261 261 262 263 264 267 268 269 270 273 275 279 283 284 286 289 291 292 296 300 305 309 307 305 302 302 301 294 292 293 291 291 289 285 282 282 286 287 281 283 285 284 285 284 281 282 285 285 286 285 287 291 294
248 244 235 230 228 227 233 244 249 254 260 265 267 266 267 265 266 269 270 270 269 269 269 268 266 264 264 265 264 263 266 270 272 275 277 281 283 286 288 289 293 298 301 303 306 307 305 304 302 295 290 289 290 289 287 285 283 284 289 285 281 287 289 288 286 286 285 284 286 288 293 295 293 293
234 234 236 235 234 237 242 249 258 262 266 271 275 273 270 266 268 269 270 271 273 274 273 273 271 267 263 262 263 263 264 265 270 274 275 276 278 281 282 283 289 296 299 302 304 304 302 302 300 295 291 290 292 291 290 287 286 289 288 291 289 279 288 292 293 292 290 290 292 294 296 293 294 291
243 242 244 246 245 248 245 248 253 255 260 264 268 270 272 272 272 271 272 273 274 275 274 272 270 268 268 266 265 267 268 270 271 274 275 276 278 281 283 288 294 297 298 295 294 293 292 292 291 290 291 289 287 292 290 288 291 290 290 292 292 293 287 290 293 295 296 296 295 294 291 291 292 298
241 241 244 246 250 251 252 255 258 262 264 265 265 267 270 272 274 275 278 276 275 275 274 272 271 270 270 271 273 273 273 275 274 273 275 279 281 282 283 289 298 296 289 288 287 287 288 290 289 290 294 294 294 290 287 291 297 294 290 291 292 292 289 292 294 296 297 293 292 296 296 295 297 297
245 245 246 249 250 253 253 254 255 256 258 261 264 266 268 271 273 275 277 279 280 279 276 277 278 277 276 275 272 270 270 271 272 273 275 278 280 280 284 290 292 290 287 285 286 287 289 290 291 293 293 294 297 295 290 289 293 291 290 287 287 288 288 290 291 292 285 288 294 293 292 295 298 299
250 250 249 251 253 254 255 256 258 259 259 259 260 264 267 269 271 274 276 277 277 276 278 279 280 279 277 276 276 275 274 272 274 277 281 280 281 282 284 287 289 291 290 286 283 286 287 287 285 283 283 283 282 288 292 292 287 284 285 283 285 286 287 287 289 288 289 290 291 289 286 288 292 293
256 252 252 252 254 257 259 260 260 262 263 264 265 265 266 269 271 272 272 273 274 275 277 279 279 279 279 280 279 279 278 278 277 277 279 280 281 284 285 287 288 287 287 285 283 282 284 282 279 273 270 268 267 270 288 292 284 286 283 288 289 290 287 286 285 284 285 282 279 282 280 276 279 288
251 254 255 256 259 260 261 263 263 264 266 267 268 268 268 269 271 272 271 270 272 275 276 277 277 279 280 280 280 279 278 278 276 276 276 279 281 282 285 287 286 283 282 281 279 278 279 277 275 272 269 268 269 268 272 300 309 298 299 297 296 296 297 292 287 283 281 280 279 278 277 280 285 290
253 255 257 257 258 260 261 262 263 264 266 267 267 268 268 267 268 271 271 271 272 275 277 276 277 279 281 282 281 279 277 276 276 277 278 278 279 280 282 283 283 281 279 280 278 276 276 273 271 270 269 269 273 277 280 279 307 315 298 297 297 299 299 292 288 285 283 282 279 282 287 291 293 292
nan 254 253 254 256 257 259 261 261 262 262 264 265 264 265 264 264 266 267 269 269 269 269 272 274 278 281 284 284 282 279 277 275 275 277 277 277 278 279 278 277 277 277 277 278 280 279 275 272 271 271 272 273 276 270 270 274 285 301 296 291 289 286 287 286 286 284 285 289 290 288 289 295 293
nan nan nan nan nan nan nan nan 256 258 258 260 262 264 264 264 264 264 265 268 269 269 269 270 274 278 282 285 287 284 279 276 276 277 277 278 280 279 277 277 277 277 276 276 278 281 281 278 274 272 274 274 276 275 276 273 281 277 279 296 288 279 282 285 287 286 286 289 291 287 289 293 280 282
nan nan nan nan nan nan nan 255 256 257 256 254 253 254 255 257 260 261 263 265 269 271 271 273 275 277 280 283 285 283 282 281 280 279 279 279 280 281 280 280 281 279 278 279 279 281 283 281 277 276 277 280 281 275 268 270 271 278 278 278 291 291 288 286 289 286 285 288 285 285 289 292 292 286
nan nan nan nan nan nan nan nan nan nan nan nan nan 254 254 254 254 254 255 257 263 267 269 271 273 275 277 278 280 281 281 281 280 279 278 278 279 280 282 283 282 281 280 279 278 276 279 279 278 281 282 278 270 266 267 270 275 279 283 284 293 303 302 297 293 289 289 288 290 290 288 287 285 283
nan nan nan nan nan nan nan nan nan nan nan nan nan 253 253 254 255 253 253 253 256 261 266 268 269 270 271 274 275 276 279 279 277 277 277 277 277 279 283 286 286 281 278 276 276 273 269 270 271 273 276 277 276 279 280 283 282 277 273 274 278 292 300 304 307 301 292 288 289 287 283 278 277 281
nan nan nan nan nan nan nan nan nan nan nan nan nan nan 251 252 253 254 255 255 255 254 255 257 261 265 268 270 272 273 275 275 275 275 277 278 279 280 281 284 285 282 278 276 274 268 266 270 274 275 276 279 281 282 284 286 284 277 270 269 278 280 282 291 301 303 298 295 300 299 292 286 279 285
nan nan nan nan nan nan nan nan nan nan nan nan nan nan nan nan nan nan 255 255 255 256 256 256 256 255 254 257 260 265 270 271 272 274 278 279 281 280 278 278 279 278 277 277 275 273 272 273 276 277 277 279 279 280 284 285 282 281 277 272 270 275 280 279 282 284 285 291 297 298 296 296 298 300
nan nan nan nan nan nan nan nan nan nan nan nan nan nan nan nan nan nan nan 253 254 255 256 257 256 256 255 255 256 258 261 260 260 263 267 271 275 275 274 274 275 276 277 279 280 278 277 276 276 276 277 279 280 284 288 287 282 277 279 278 273 271 270 275 281 283 284 286 297 304 298 297 297 295